HB9TUO-2 Weather Reports


Display with metric or nautical units.
time (UTC)temp
F
wind
direction
speed
MPH
gust
MPH
rain 1hr
in
rain 24hr
in
rain mn
in
humidity
%
barometer
mb
20260507205004 51 26 0.0 2.0 0.00 0.00 2.82 70 1015.6
20260507204504 51 14 0.0 2.0 0.00 0.00 2.82 70 1015.2
20260507204004 51 7 0.0 2.0 0.00 0.00 2.82 70 1015.2
20260507203504 51 360 0.0 1.0 0.00 0.00 2.82 70 1015.3
20260507203217 51 360 0.0 1.0 0.00 0.00 2.82 70 1015.3
20260507202504 51 350 0.0 2.0 0.00 0.00 2.82 71 1015.1
20260507202004 51 347 1.0 2.0 0.00 0.00 2.82 71 1015.1
20260507201716 51 344 1.0 2.0 0.00 0.00 2.82 71 1015.2
20260507201004 50 0 0.0 0.0 0.00 0.00 2.82 72 1015.0
20260507200504 50 360 0.0 1.0 0.00 0.00 2.82 72 1015.0
20260507200004 50 347 0.0 2.0 0.00 0.00 2.82 72 1015.0
20260507195504 50 336 0.0 2.0 0.00 0.00 2.82 72 1015.0
20260507195004 50 346 0.0 2.0 0.00 0.00 2.82 72 1014.8
20260507194504 50 351 0.0 2.0 0.00 0.00 2.82 72 1014.7
20260507194004 50 347 1.0 2.0 0.00 0.00 2.82 72 1014.7
20260507193504 50 359 1.0 2.0 0.00 0.00 2.82 72 1014.6
20260507193004 50 353 0.0 4.0 0.00 0.00 2.82 72 1014.5
20260507192503 50 345 1.0 4.0 0.00 0.00 2.82 73 1014.5
20260507192003 50 325 2.0 3.0 0.00 0.00 2.82 73 1014.6
20260507191503 50 319 0.0 3.0 0.00 0.00 2.82 73 1014.4
20260507191004 50 317 1.0 2.0 0.00 0.00 2.82 72 1014.4
20260507190717 51 328 2.0 2.0 0.00 0.00 2.82 71 1014.3
20260507190005 51 3 0.0 2.0 0.00 0.00 2.82 71 1014.3
20260507185504 51 342 1.0 2.0 0.00 0.00 2.82 71 1014.4
20260507185003 51 330 0.0 2.0 0.00 0.00 2.82 71 1014.3
20260507184714 51 331 2.0 2.0 0.00 0.00 2.82 71 1014.4
20260507184003 51 327 2.0 2.0 0.00 0.00 2.82 70 1014.3
20260507183503 51 329 1.0 2.0 0.00 0.00 2.82 69 1014.3
20260507183003 51 352 0.0 2.0 0.00 0.00 2.82 67 1014.1
20260507182504 51 343 0.0 3.0 0.00 0.00 2.82 68 1014.2
20260507182214 51 340 0.0 3.0 0.00 0.00 2.82 69 1014.0
20260507181504 52 339 0.0 2.0 0.00 0.00 2.82 66 1013.9
20260507181215 52 328 0.0 2.0 0.00 0.00 2.82 66 1013.9
20260507180713 52 320 2.0 2.0 0.00 0.00 2.82 66 1013.8
20260507180003 53 329 2.0 2.0 0.00 0.00 2.82 66 1013.9
20260507175504 54 324 2.0 2.0 0.00 0.00 2.82 63 1014.0
20260507175004 55 325 1.0 2.0 0.00 0.00 2.82 56 1013.7
20260507174504 55 4 1.0 2.0 0.00 0.00 2.82 55 1013.6
20260507174004 55 315 0.0 1.0 0.00 0.00 2.82 53 1013.6
20260507173504 56 336 0.0 2.0 0.00 0.00 2.82 52 1013.5
20260507173214 56 92 0.0 2.0 0.00 0.00 2.82 51 1013.6
20260507172504 58 149 1.0 4.0 0.00 0.00 2.82 50 1013.6
20260507172004 60 163 2.0 4.0 0.00 0.00 2.82 47 1013.5
20260507171504 62 166 2.0 4.0 0.00 0.00 2.82 48 1013.6
20260507171004 63 186 2.0 4.0 0.00 0.00 2.82 46 1013.6
20260507170504 64 189 2.0 4.0 0.00 0.00 2.82 42 1013.5
20260507170005 63 170 0.0 4.0 0.00 0.00 2.82 45 1013.6
20260507165504 63 160 3.0 4.0 0.00 0.00 2.82 45 1013.4
20260507165004 63 157 3.0 4.0 0.00 0.00 2.82 44 1013.5
20260507164504 63 157 4.0 4.0 0.00 0.00 2.82 46 1013.6
20260507164004 63 165 3.0 5.0 0.00 0.00 2.82 47 1013.3
20260507163504 62 173 2.0 5.0 0.00 0.00 2.82 43 1013.4
20260507163004 62 176 2.0 4.0 0.00 0.00 2.82 46 1013.6
20260507162504 62 173 2.0 4.0 0.00 0.00 2.82 45 1013.4
20260507162215 62 182 2.0 4.0 0.00 0.00 2.82 46 1013.4
20260507161718 63 193 2.0 4.0 0.00 0.00 2.82 50 1013.5
20260507161004 63 202 3.0 5.0 0.00 0.00 2.82 49 1013.5
20260507160504 64 203 4.0 5.0 0.00 0.00 2.82 44 1013.2
20260507160004 64 193 4.0 5.0 0.00 0.00 2.82 44 1013.4
20260507155504 64 182 3.0 4.0 0.00 0.00 2.82 45 1013.3
20260507155213 63 182 2.0 5.0 0.00 0.00 2.82 50 1013.2
20260507154504 64 156 3.0 5.0 0.00 0.00 2.82 46 1013.3
20260507154004 64 173 3.0 4.0 0.00 0.00 2.82 45 1013.3
20260507153504 64 190 3.0 8.0 0.00 0.00 2.82 44 1013.3
20260507153004 64 188 3.0 8.0 0.00 0.00 2.82 43 1013.4
20260507152504 64 187 3.0 5.0 0.00 0.00 2.82 43 1013.3
20260507152003 64 200 2.0 5.0 0.00 0.00 2.82 44 1013.3
20260507151504 64 187 3.0 5.0 0.00 0.00 2.82 44 1013.3
20260507151217 64 181 2.0 5.0 0.00 0.00 2.82 45 1013.5
20260507150503 64 182 3.0 8.0 0.00 0.00 2.82 44 1013.6
20260507150213 63 164 3.0 8.0 0.00 0.00 2.82 48 1013.6
20260507145716 63 140 3.0 7.0 0.00 0.00 2.82 50 1013.3
20260507145003 62 192 2.0 6.0 0.00 0.00 2.82 48 1013.5
20260507144503 62 163 2.0 6.0 0.00 0.00 2.82 50 1013.6
20260507144214 62 161 4.0 7.0 0.00 0.00 2.82 47 1013.5
20260507143504 62 170 3.0 7.0 0.00 0.00 2.82 47 1013.5
20260507143004 62 183 4.0 7.0 0.00 0.00 2.82 50 1013.7
20260507142504 61 197 3.0 4.0 0.00 0.00 2.82 52 1013.5
20260507142004 60 198 2.0 4.0 0.00 0.00 2.82 52 1013.6
20260507141504 60 181 3.0 6.0 0.00 0.00 2.82 54 1013.8
20260507141004 60 173 2.0 6.0 0.00 0.00 2.82 53 1013.7
20260507140504 60 170 2.0 4.0 0.00 0.00 2.82 52 1013.8
20260507140004 60 166 2.0 4.0 0.00 0.00 2.82 52 1013.7
20260507135716 60 162 2.0 4.0 0.00 0.00 2.82 50 1013.7
20260507135004 62 184 3.0 6.0 0.00 0.00 2.82 51 1013.7
20260507134504 63 181 4.0 6.0 0.00 0.00 2.82 48 1013.8
20260507134004 62 174 4.0 6.0 0.00 0.00 2.82 50 1013.8
20260507133504 63 173 3.0 6.0 0.00 0.00 2.82 51 1014.0
20260507133004 63 174 3.0 6.0 0.00 0.00 2.82 52 1013.8
20260507132504 62 170 4.0 6.0 0.00 0.00 2.82 51 1013.9
20260507132217 62 170 3.0 6.0 0.00 0.00 2.82 52 1014.0
20260507131503 63 158 4.0 7.0 0.00 0.00 2.82 52 1014.0
20260507131004 62 160 3.0 7.0 0.00 0.00 2.82 52 1014.0
20260507130504 62 174 3.0 6.0 0.00 0.00 2.82 54 1014.3
20260507130004 62 169 4.0 6.0 0.00 0.00 2.82 54 1014.2
20260507125503 60 143 2.0 6.0 0.00 0.00 2.82 59 1014.1
20260507125004 58 108 3.0 6.0 0.00 0.00 2.82 61 1014.1
20260507124503 56 90 4.0 4.0 0.00 0.00 2.82 59 1014.0
20260507124003 59 135 3.0 4.0 0.00 0.00 2.82 60 1014.2
20260507123714 59 135 3.0 4.0 0.00 0.00 2.82 60 1014.3
20260507123003 59 135 3.0 4.0 0.00 0.00 2.82 60 1014.2
20260507122503 59 135 3.0 4.0 0.00 0.00 2.82 60 1014.3
20260507122004 59 135 3.0 4.0 0.00 0.00 2.82 60 1014.3
20260507121503 59 135 3.0 4.0 0.00 0.00 2.82 60 1014.2
20260507121003 59 135 3.0 4.0 0.00 0.00 2.82 60 1014.0
20260507120503 59 135 3.0 4.0 0.00 0.00 2.82 60 1014.4
20260507120005 59 135 3.0 4.0 0.00 0.00 2.82 60 1014.4
20260507115504 59 135 3.0 4.0 0.00 0.00 2.82 60 1014.2
20260507115004 59 135 3.0 4.0 0.00 0.00 2.82 60 1014.4
20260507114504 59 113 3.0 6.0 0.00 0.00 2.82 60 1014.1
20260507114004 59 90 4.0 6.0 0.00 0.00 2.82 60 1014.1
20260507113504 59 98 4.0 6.0 0.00 0.00 2.82 60 1014.3
20260507113004 59 137 4.0 6.0 0.00 0.00 2.82 60 1014.3
20260507112504 59 156 3.0 4.0 0.00 0.00 2.82 60 1014.3
20260507112004 59 135 3.0 4.0 0.00 0.00 2.82 57 1014.6
20260507111506 59 138 3.0 5.0 0.00 0.00 2.82 57 1014.5
20260507111214 59 153 3.0 8.0 0.00 0.00 2.82 57 1014.5
20260507110504 59 176 4.0 8.0 0.00 0.00 2.82 59 1014.7
20260507110004 59 161 4.0 8.0 0.00 0.00 2.82 59 1014.4
20260507105504 60 135 3.0 4.0 0.00 0.00 2.82 61 1014.4
20260507105216 60 135 3.0 4.0 0.00 0.00 2.82 61 1014.4
20260507104504 56 225 2.0 4.0 0.00 0.00 2.82 63 1014.5
20260507104217 56 225 2.0 4.0 0.00 0.00 2.82 63 1014.5
20260507103504 56 225 2.0 4.0 0.00 0.00 2.82 63 1014.7
20260507103218 56 225 2.0 4.0 0.00 0.00 2.82 63 1014.6
20260507102504 56 200 2.0 4.0 0.00 0.00 2.82 63 1014.6
20260507102004 56 110 3.0 4.0 0.00 0.00 2.82 62 1014.8
20260507101504 56 145 1.0 3.0 0.00 0.00 2.82 63 1014.7
20260507101215 56 168 1.0 3.0 0.00 0.00 2.82 63 1014.7
20260507100503 55 169 2.0 4.0 0.00 0.00 2.82 62 1014.7
20260507100216 55 162 2.0 4.0 0.00 0.00 2.82 62 1014.8
20260507095504 55 171 3.0 4.0 0.00 0.00 2.82 62 1014.7
20260507095004 55 136 2.0 5.0 0.00 0.00 2.82 64 1014.7
20260507094504 54 128 3.0 5.0 0.00 0.00 2.82 69 1014.7
20260507094213 54 125 2.0 4.0 0.00 0.00 2.82 70 1014.5
20260507093504 52 111 1.0 4.0 0.00 0.00 2.82 71 1014.5
20260507093213 51 100 2.0 4.0 0.00 0.00 2.82 71 1014.4
20260507092504 51 116 2.0 6.0 0.00 0.00 2.82 72 1014.6
20260507092003 51 307 1.0 6.0 2.82 2.86 2.82 71 1014.3
20260507091503 43 315 5.0 6.0 0.00 0.40 0.00 98 1011.2
20260507091004 43 315 5.0 6.0 0.00 0.40 0.00 98 1011.3
20260507090504 43 315 5.0 6.0 0.00 0.41 0.00 98 1011.3
20260507090005 43 315 5.0 6.0 0.00 0.41 0.00 98 1011.3
20260507085504 43 315 5.0 6.0 0.00 0.41 0.00 98 1011.3
20260507085004 43 315 5.0 6.0 0.00 0.41 0.00 98 1011.3
20260507084504 43 315 5.0 6.0 0.00 0.41 0.00 98 1011.2
20260507084217 43 315 5.0 6.0 0.00 0.41 0.00 98 1011.1
20260507083504 43 315 5.0 6.0 0.00 0.41 0.00 98 1010.9
20260507083004 43 315 5.0 6.0 0.00 0.41 0.00 98 1011.2
20260507082716 43 315 5.0 6.0 0.00 0.41 0.00 98 1011.0
20260507082004 43 315 5.0 6.0 0.00 0.41 0.00 98 1010.7
20260507081504 43 315 5.0 6.0 0.00 0.41 0.00 98 1010.8
20260507081004 43 315 5.0 6.0 0.00 0.41 0.00 98 1010.8
20260507080504 43 315 5.0 6.0 0.00 0.41 0.00 98 1010.7
20260507080004 43 315 5.0 6.0 0.00 0.41 0.00 98 1011.0
20260507075504 43 315 5.0 6.0 0.00 0.41 0.00 98 1010.9
20260507075004 43 315 5.0 6.0 0.00 0.41 0.00 98 1010.8
20260507074504 43 315 5.0 6.0 0.00 0.41 0.00 98 1010.9
20260507074004 43 315 5.0 6.0 0.00 0.41 0.00 98 1010.8
20260507073503 43 315 5.0 6.0 0.00 0.41 0.00 98 1010.9
20260507073004 43 315 5.0 6.0 0.00 0.41 0.00 98 1010.9
20260507072716 43 315 5.0 6.0 0.00 0.41 0.00 98 1010.8
20260507072003 43 315 5.0 6.0 0.00 0.41 0.00 98 1010.8
20260507071504 43 315 5.0 6.0 0.00 0.41 0.00 98 1010.6
20260507071003 43 315 5.0 6.0 0.00 0.41 0.00 98 1010.7
20260507070713 43 315 5.0 6.0 0.00 0.41 0.00 98 1010.7
20260507070007 43 315 5.0 6.0 0.00 0.41 0.00 98 1010.5
20260507065714 43 315 5.0 6.0 0.00 0.41 0.00 98 1010.8
20260507065003 43 315 5.0 6.0 0.00 0.41 0.00 98 1010.6
20260507064503 43 315 5.0 6.0 0.00 0.41 0.00 98 1010.6
20260507064003 43 315 5.0 6.0 0.00 0.41 0.00 98 1010.5
20260507063504 43 315 5.0 6.0 0.00 0.43 0.00 98 1010.6
20260507063214 43 315 5.0 6.0 0.00 0.43 0.00 98 1010.6
20260507062503 43 315 5.0 6.0 0.00 0.44 0.00 98 1010.6
20260507062003 43 315 5.0 6.0 0.00 0.44 0.00 98 1010.4
20260507061503 43 315 5.0 6.0 0.00 0.44 0.00 98 1010.3
20260507061003 43 315 5.0 6.0 0.00 0.45 0.00 98 1010.4
20260507060503 43 315 5.0 6.0 0.00 0.46 0.00 98 1010.4
20260507060217 43 315 5.0 6.0 0.00 0.46 0.00 98 1010.4
20260507055504 43 315 5.0 6.0 0.00 0.46 0.00 98 1010.4
20260507055218 43 315 5.0 6.0 0.00 0.47 0.00 98 1010.3
20260507054504 43 315 5.0 6.0 0.00 0.47 0.00 98 1010.2
20260507054004 43 315 5.0 6.0 0.00 0.48 0.00 98 1010.2
20260507053717 43 315 5.0 6.0 0.00 0.48 0.00 98 1010.1
20260507053004 43 315 5.0 6.0 0.00 0.48 0.00 98 1009.9
20260507052504 43 315 5.0 6.0 0.00 0.50 0.00 98 1010.0
20260507052216 43 315 5.0 6.0 0.00 0.51 0.00 98 1009.9
20260507051504 43 315 5.0 6.0 0.00 0.51 0.00 98 1009.9
20260507051004 43 315 5.0 6.0 0.00 0.52 0.00 98 1010.0
20260507050714 43 315 5.0 6.0 0.00 0.53 0.00 98 1009.8
20260507050005 43 315 5.0 6.0 0.00 0.53 0.00 98 1009.8
20260507045504 43 315 5.0 6.0 0.00 0.53 0.00 98 1009.7
20260507045003 43 315 5.0 6.0 0.00 0.53 0.00 98 1009.6
20260507044716 43 315 5.0 6.0 0.00 0.53 0.00 98 1009.7
20260507044004 43 315 5.0 6.0 0.00 0.53 0.00 98 1009.5
20260507043504 43 315 5.0 6.0 0.00 0.53 0.00 98 1009.6
20260507043003 43 315 5.0 6.0 0.00 0.53 0.00 98 1009.7
20260507042503 43 315 5.0 6.0 0.00 0.53 0.00 98 1009.6
20260507042003 43 315 5.0 6.0 0.00 0.53 0.00 98 1009.3
20260507041503 43 315 5.0 6.0 0.00 0.53 0.00 98 1009.4
20260507041003 43 315 5.0 6.0 0.00 0.53 0.00 98 1009.6
20260507040503 43 315 5.0 6.0 0.00 0.54 0.00 98 1009.4
20260507040004 43 315 5.0 6.0 0.00 0.54 0.00 98 1009.6
20260507035503 43 315 5.0 6.0 0.00 0.54 0.00 98 1009.4
20260507035003 43 315 5.0 6.0 0.00 0.56 0.00 98 1009.4
20260507034503 43 315 5.0 6.0 0.00 0.56 0.00 98 1009.4
20260507034003 43 315 5.0 6.0 0.00 0.56 0.00 98 1009.5
20260507033503 43 315 5.0 6.0 0.00 0.56 0.00 98 1009.4
20260507033003 43 315 5.0 6.0 0.00 0.57 0.00 98 1009.5
20260507032503 43 315 5.0 6.0 0.00 0.58 0.00 98 1009.5
20260507032217 43 315 5.0 6.0 0.00 0.58 0.00 98 1009.4
20260507031503 43 315 5.0 6.0 0.00 0.58 0.00 98 1009.6
20260507031003 43 315 5.0 6.0 0.00 0.58 0.00 98 1009.5
20260507030716 43 315 5.0 6.0 0.00 0.58 0.00 98 1009.3
20260507030003 43 315 5.0 6.0 0.00 0.58 0.00 98 1009.3
20260507025504 43 315 5.0 6.0 0.00 0.58 0.00 98 1009.3
20260507025215 43 315 5.0 6.0 0.00 0.58 0.00 98 1009.5
20260507024504 43 315 5.0 6.0 0.00 0.58 0.00 98 1009.4
20260507024004 43 315 5.0 6.0 0.00 0.58 0.00 98 1009.2
20260507023504 43 315 5.0 6.0 0.00 0.58 0.00 98 1009.4
20260507023004 43 315 5.0 6.0 0.00 0.58 0.00 98 1009.4
20260507022504 43 315 5.0 6.0 0.00 0.59 0.00 98 1009.4
20260507022004 43 315 5.0 6.0 0.00 0.59 0.00 98 1009.4
20260507021504 43 315 5.0 6.0 0.00 0.59 0.00 98 1009.6
20260507021004 43 315 5.0 6.0 0.00 0.59 0.00 98 1009.3
20260507020717 43 315 5.0 6.0 0.00 0.59 0.00 98 1009.3
20260507020004 43 315 5.0 6.0 0.00 0.59 0.00 98 1009.6
20260507015504 43 315 5.0 6.0 0.00 0.60 0.00 98 1009.4
20260507015004 43 315 5.0 6.0 0.00 0.60 0.00 98 1009.4
20260507014504 43 315 5.0 6.0 0.00 0.61 0.00 98 1009.3
20260507014216 43 315 5.0 6.0 0.00 0.61 0.00 98 1009.2
20260507013503 43 315 5.0 6.0 0.00 0.63 0.00 98 1009.3
20260507013004 43 315 5.0 6.0 0.00 0.63 0.00 98 1009.1
20260507012503 43 315 5.0 6.0 0.00 0.63 0.00 98 1009.1
20260507012213 43 315 5.0 6.0 0.00 0.63 0.00 98 1009.1
20260507011503 43 315 5.0 6.0 0.00 0.63 0.00 98 1009.1
20260507011004 43 315 5.0 6.0 0.00 0.63 0.00 98 1008.9
20260507010503 43 315 5.0 6.0 0.00 0.63 0.00 98 1009.0
20260507010004 43 315 5.0 6.0 0.00 0.64 0.00 98 1009.0
20260507005503 43 315 5.0 6.0 0.00 0.64 0.00 98 1009.1
20260507005004 43 315 5.0 6.0 0.00 0.64 0.00 98 1009.1
20260507004504 43 315 5.0 6.0 0.00 0.65 0.00 98 1009.0
20260507004003 43 315 5.0 6.0 0.00 0.65 0.00 98 1009.1
20260507003503 43 315 5.0 6.0 0.00 0.65 0.00 98 1009.0
20260507003003 43 315 5.0 6.0 0.00 0.65 0.00 98 1009.1
20260507002716 43 315 5.0 6.0 0.00 0.65 0.00 98 1009.3
20260507002004 43 315 5.0 6.0 0.00 0.65 0.00 98 1009.1
20260507001503 43 315 5.0 6.0 0.00 0.66 0.00 98 1009.2
20260507001003 43 315 5.0 6.0 0.00 0.66 0.00 98 1009.0
20260507000712 43 315 5.0 6.0 0.00 0.66 0.00 98 1009.2
20260507000003 43 315 5.0 6.0 0.00 0.66 0.00 98 1009.1
20260506235503 43 315 5.0 6.0 0.00 0.66 0.00 98 1009.1
20260506235003 43 315 5.0 6.0 0.00 0.66 0.00 98 1009.1
20260506234715 43 315 5.0 6.0 0.00 0.66 0.00 98 1009.0
20260506234004 43 315 5.0 6.0 0.00 0.66 0.00 98 1009.1
20260506233504 43 315 5.0 6.0 0.00 0.66 0.00 98 1009.2
20260506233004 43 315 5.0 6.0 0.00 0.66 0.00 98 1009.1
20260506232716 43 315 5.0 6.0 0.00 0.66 0.00 98 1009.3
20260506232004 43 315 5.0 6.0 0.00 0.66 0.00 98 1009.2
20260506231504 43 315 5.0 6.0 0.00 0.66 0.00 98 1009.2
20260506231004 43 315 5.0 6.0 0.00 0.67 0.00 98 1009.2
20260506230713 43 315 5.0 6.0 0.00 0.67 0.00 98 1009.3
20260506230004 43 315 5.0 6.0 0.00 0.67 0.00 98 1009.1
20260506225504 43 315 5.0 6.0 0.00 0.69 0.00 98 1009.1
20260506225004 43 315 5.0 6.0 0.00 0.69 0.00 98 1009.1
20260506224504 43 315 5.0 6.0 0.00 0.69 0.00 98 1009.1
20260506224004 43 315 5.0 6.0 0.00 0.70 0.00 98 1008.9
20260506223504 43 315 5.0 6.0 0.00 0.70 0.00 98 1009.0
20260506223004 43 315 5.0 6.0 0.00 0.70 0.00 98 1008.8
20260506222504 43 315 5.0 6.0 0.00 0.70 0.00 98 1008.8
20260506222215 43 315 5.0 6.0 0.00 0.70 0.00 98 1008.9
20260506221504 43 315 5.0 6.0 0.00 0.71 0.00 98 1008.8
20260506221003 43 315 5.0 6.0 0.00 0.71 0.00 98 1008.9
20260506220503 43 315 5.0 6.0 0.00 0.73 0.00 98 1008.8
20260506220004 43 315 5.0 6.0 0.00 0.73 0.00 98 1009.0
20260506215503 43 315 5.0 6.0 0.00 0.73 0.73 98 1009.0
20260506215213 43 315 5.0 6.0 0.00 0.74 0.73 98 1009.0
20260506214503 43 315 5.0 6.0 0.00 0.74 0.73 98 1009.1
20260506214003 43 315 5.0 6.0 0.00 0.74 0.73 98 1008.9
20260506213503 43 315 5.0 6.0 0.00 0.76 0.73 98 1009.0
20260506213003 43 315 5.0 6.0 0.00 0.76 0.73 98 1008.9
20260506212503 43 315 5.0 6.0 0.00 0.77 0.73 98 1008.9
20260506212216 43 315 5.0 6.0 0.00 0.77 0.73 98 1009.0
20260506211503 43 315 5.0 6.0 0.00 0.78 0.73 98 1008.8
20260506211003 43 315 5.0 6.0 0.00 0.78 0.73 98 1008.8
20260506210714 43 315 5.0 6.0 0.00 0.78 0.73 98 1008.6
20260506210217 43 315 5.0 6.0 0.00 0.79 0.73 98 1008.6
20260506205503 43 315 5.0 6.0 0.00 0.79 0.73 98 1008.8